Wise, VA

6:40 PM EST on November 21, 2019 (GMT -0500)
Lonesome Pine

Weather History for KLNP - September, 2019

Change the Weather History Date:

Monday, September 23, 2019

  Actual Average Record
Temperature  
Mean Temperature 68 °F -  
Max Temperature 77 °F 70 °F 87 °F (2005)
Min Temperature 60 °F 51 °F 41 °F (2012)
Cooling Degree Days 4    
Growing Degree Days 18 (Base 50)    
Moisture  
Dew Point 56 °F    
Average Humidity 70    
Maximum Humidity 100    
Minimum Humidity 41    
Precipitation  
Precipitation 0.02 in - - ()
Sea Level Pressure  
Sea Level Pressure 30.15 in    
Wind  
Wind Speed 6 mph (SW)    
Max Wind Speed 14 mph    
Max Gust Speed 18 mph    
Visibility 10 miles    
Events Rain    
Averages and records for this station are not official NWS values.
T = Trace of Precipitation, MM = Missing Value Source: NWS Daily Summary

Daily Weather History Graph

Daily Weather History Graph

Search for Another Location

Airport or City:

Astronomy

Sep. 23, 2019 Rise Set
Actual Time 7:18 AM EDT 7:25 PM EDT
Civil Twilight 6:52 AM EDT 7:51 PM EDT
Nautical Twilight 6:22 AM EDT 8:21 PM EDT
Astronomical Twilight 5:51 AM EDT 8:52 PM EDT
Moon 1:09 AM EDT (9/23) 4:09 PM EDT (9/23)
Length of Visible Light 12h 59m
Length of Day
12h 07m
Waning Crescent, 33% of the Moon is Illuminated
Sep 23
Waning Crescent
Sep 28
New
Oct 5
First Quarter
Oct 13
Full
Oct 21
Last Quarter

Hourly Weather History & Observations

Time (EDT) Temp. Dew Point Humidity Pressure Visibility Wind Dir Wind Speed Gust Speed Precip Events Conditions
12:15 AM 66.2 °F 51.8 °F 60% 30.20 in 10.0 mi SSW 4.6 mph - N/A   Clear
12:35 AM 68.0 °F 53.6 °F 60% 30.20 in 10.0 mi SSW 3.5 mph - N/A   Clear
12:55 AM 68.0 °F 51.8 °F 56% 30.20 in 10.0 mi Calm Calm - N/A   Clear
1:15 AM 66.2 °F 51.8 °F 60% 30.19 in 10.0 mi Calm Calm - N/A   Clear
1:35 AM 68.0 °F 51.8 °F 56% 30.19 in 10.0 mi Calm Calm - N/A   Clear
1:55 AM 66.2 °F 51.8 °F 60% 30.19 in 10.0 mi Calm Calm - N/A   Clear
2:15 AM 66.2 °F 51.8 °F 60% 30.19 in 10.0 mi Calm Calm - N/A   Clear
2:35 AM 62.6 °F 51.8 °F 68% 30.19 in 10.0 mi SW 4.6 mph - N/A   Clear
2:55 AM 62.6 °F 51.8 °F 68% 30.19 in 10.0 mi SW 6.9 mph - N/A   Clear
3:15 AM 64.4 °F 51.8 °F 64% 30.19 in 10.0 mi SW 6.9 mph - N/A   Clear
3:35 AM 64.4 °F 51.8 °F 64% 30.19 in 10.0 mi SW 8.1 mph - N/A   Clear
3:55 AM 64.4 °F 51.8 °F 64% 30.18 in 10.0 mi SW 6.9 mph - N/A   Clear
4:15 AM 64.4 °F 51.8 °F 64% 30.18 in 10.0 mi SW 6.9 mph - N/A   Clear
4:35 AM 64.4 °F 51.8 °F 64% 30.18 in 10.0 mi SW 5.8 mph - N/A   Clear
4:55 AM 64.4 °F 51.8 °F 64% 30.18 in 10.0 mi SW 6.9 mph - N/A   Clear
5:15 AM 64.4 °F 51.8 °F 64% 30.17 in 10.0 mi SW 5.8 mph - N/A   Clear
5:35 AM 62.6 °F 51.8 °F 68% 30.17 in 10.0 mi SW 3.5 mph - N/A   Clear
5:55 AM 62.6 °F 51.8 °F 68% 30.17 in 10.0 mi WSW 3.5 mph - N/A   Clear
6:15 AM 62.6 °F 51.8 °F 68% 30.17 in 10.0 mi Calm Calm - N/A   Clear
6:35 AM 62.6 °F 51.8 °F 68% 30.17 in 10.0 mi WSW 3.5 mph - N/A   Clear
6:55 AM 62.6 °F 51.8 °F 68% 30.17 in 10.0 mi SW 3.5 mph - N/A   Clear
7:35 AM 60.8 °F 51.8 °F 72% 30.18 in 10.0 mi SW 6.9 mph - N/A   Clear
7:55 AM 62.6 °F 51.8 °F 68% 30.18 in 10.0 mi SW 5.8 mph - N/A   Clear
8:15 AM 64.4 °F 53.6 °F 68% 30.17 in 10.0 mi SW 5.8 mph - N/A   Clear
8:35 AM 66.2 °F 53.6 °F 64% 30.18 in 10.0 mi SW 6.9 mph - N/A   Clear
8:55 AM 68.0 °F 53.6 °F 60% 30.18 in 10.0 mi SW 9.2 mph - N/A   Clear
9:15 AM 68.0 °F 53.6 °F 60% 30.18 in 10.0 mi SW 10.4 mph - N/A   Scattered Clouds
9:40 AM 69.8 °F 53.6 °F 56% 30.18 in 10.0 mi WSW 9.2 mph - N/A   Mostly Cloudy
9:55 AM 69.8 °F 51.8 °F 53% 30.18 in 10.0 mi SW 9.2 mph - N/A   Mostly Cloudy
10:15 AM 69.8 °F 51.8 °F 53% 30.18 in 10.0 mi SW 8.1 mph - N/A   Overcast
10:35 AM 69.8 °F 51.8 °F 53% 30.18 in 10.0 mi SW 9.2 mph - N/A   Overcast
10:55 AM 71.6 °F 51.8 °F 50% 30.18 in 10.0 mi WSW 9.2 mph - N/A   Mostly Cloudy
11:15 AM 73.4 °F 51.8 °F 47% 30.18 in 10.0 mi SW 9.2 mph - N/A   Mostly Cloudy
11:35 AM 73.4 °F 51.8 °F 47% 30.18 in 10.0 mi SW 10.4 mph - N/A   Mostly Cloudy
11:55 AM 77.0 °F 51.8 °F 41% 30.18 in 10.0 mi SW 9.2 mph - N/A   Mostly Cloudy
12:15 PM 77.0 °F 51.8 °F 41% 30.17 in 10.0 mi SSW 10.4 mph - N/A   Mostly Cloudy
12:35 PM 77.0 °F 51.8 °F 41% 30.16 in 10.0 mi WSW 13.8 mph 17.3 mph N/A   Overcast
12:55 PM 77.0 °F 51.8 °F 41% 30.16 in 10.0 mi WSW 6.9 mph - N/A   Overcast
1:15 PM 77.0 °F 53.6 °F 44% 30.15 in 10.0 mi WSW 9.2 mph 16.1 mph N/A   Overcast
1:35 PM 77.0 °F 53.6 °F 44% 30.14 in 10.0 mi SW 10.4 mph 18.4 mph N/A   Overcast
1:55 PM 77.0 °F 53.6 °F 44% 30.13 in 10.0 mi WSW 6.9 mph - N/A   Overcast
2:15 PM 77.0 °F 53.6 °F 44% 30.13 in 10.0 mi SW 11.5 mph - N/A   Overcast
2:35 PM 77.0 °F 53.6 °F 44% 30.12 in 10.0 mi SW 12.7 mph 17.3 mph N/A   Overcast
2:55 PM 75.2 °F 55.4 °F 50% 30.12 in 10.0 mi SW 10.4 mph - N/A   Overcast
3:15 PM 73.4 °F 55.4 °F 53% 30.12 in 10.0 mi SW 11.5 mph - N/A   Overcast
3:35 PM 71.6 °F 57.2 °F 60% 30.12 in 10.0 mi SW 13.8 mph 17.3 mph N/A Rain Light Rain
3:55 PM 69.8 °F 60.8 °F 73% 30.12 in 10.0 mi SW 10.4 mph - N/A   Drizzle
4:15 PM 66.2 °F 62.6 °F 88% 30.12 in 3.0 mi SW 6.9 mph - N/A   Drizzle
4:35 PM 66.2 °F 66.2 °F 100% 30.11 in 4.0 mi SW 5.8 mph - 0.02 in Rain Light Rain
4:55 PM 66.2 °F 66.2 °F 100% 30.11 in 10.0 mi SW 4.6 mph - 0.02 in   Overcast
5:15 PM 68.0 °F 66.2 °F 94% 30.11 in 10.0 mi SW 6.9 mph - N/A   Overcast
5:35 PM 68.0 °F 64.4 °F 88% 30.10 in 10.0 mi SSW 6.9 mph - N/A   Overcast
5:55 PM 68.0 °F 62.6 °F 83% 30.10 in 10.0 mi SW 8.1 mph - N/A   Overcast
6:15 PM 68.0 °F 62.6 °F 83% 30.10 in 10.0 mi WSW 5.8 mph - N/A   Overcast
6:35 PM 68.0 °F 62.6 °F 83% 30.09 in 10.0 mi SW 8.1 mph - N/A   Overcast
6:55 PM 68.0 °F 62.6 °F 83% 30.10 in 10.0 mi WSW 6.9 mph - N/A   Overcast
7:15 PM 68.0 °F 64.4 °F 88% 30.10 in 10.0 mi WSW 8.1 mph - N/A   Overcast
7:35 PM 66.2 °F 64.4 °F 94% 30.10 in 10.0 mi SW 8.1 mph - N/A   Overcast
7:55 PM 66.2 °F 64.4 °F 94% 30.10 in 10.0 mi WSW 8.1 mph - N/A   Overcast
8:15 PM 66.2 °F 64.4 °F 94% 30.09 in 10.0 mi SW 8.1 mph - N/A   Overcast
8:35 PM 64.4 °F 64.4 °F 100% 30.09 in 10.0 mi WSW 8.1 mph - N/A   Scattered Clouds
8:55 PM 64.4 °F 64.4 °F 100% 30.09 in 10.0 mi SW 6.9 mph - N/A   Clear
9:15 PM 64.4 °F 64.4 °F 100% 30.09 in 10.0 mi WSW 5.8 mph - N/A   Scattered Clouds
9:35 PM 64.4 °F 64.4 °F 100% 30.09 in 10.0 mi WSW 5.8 mph - N/A   Clear
9:55 PM 62.6 °F 62.6 °F 100% 30.09 in 10.0 mi WSW 4.6 mph - N/A   Clear
10:15 PM 62.6 °F 62.6 °F 100% 30.09 in 10.0 mi West 4.6 mph - N/A   Clear
10:35 PM 64.4 °F 64.4 °F 100% 30.09 in 10.0 mi West 5.8 mph - N/A   Clear
10:55 PM 64.4 °F 64.4 °F 100% 30.09 in 10.0 mi West 3.5 mph - N/A   Clear
11:15 PM 62.6 °F 62.6 °F 100% 30.09 in 10.0 mi SW 4.6 mph - N/A   Clear
11:35 PM 62.6 °F 62.6 °F 100% 30.09 in 2.0 mi Calm Calm - N/A   Mostly Cloudy